Reno, NV

5:33 PM PST on December 12, 2019 (GMT -0800)
Reno-Tahoe International

Weather History for KRNO - August, 2019

Change the Weather History Date:

Thursday, August 15, 2019

  Actual Average Record
Temperature  
Mean Temperature 82 °F 74 °F  
Max Temperature 100 °F 91 °F 102 °F (2003)
Min Temperature 63 °F 56 °F 35 °F (1954)
Degree Days  
Heating Degree Days 0 0  
Month to date heating degree days 0 0  
Since 1 June heating degree days 15 61  
Since 1 July heating degree days 0 5  
Cooling Degree Days 16 9  
Month to date cooling degree days 178 148  
Year to date cooling degree days 769 635  
Since 1 June cooling degree days 755 598  
Growing Degree Days 32 (Base 50)    
Moisture  
Dew Point 38 °F    
Average Humidity 23    
Maximum Humidity 43    
Minimum Humidity 10    
Precipitation  
Precipitation 0.00 in 0.01 in 0.22 in (1965)
Month to date precipitation T 0.14  
Year to date precipitation 8.76 4.60  
Snow  
Snow 0.00 in 0.00 in 0.00 in ()
Month to date snowfall 0.0 0.0  
Since 1 June snowfall 0.0 T  
Since 1 July snowfall 0.0 0.0  
Snow Depth 0.00 in    
Sea Level Pressure  
Sea Level Pressure 29.96 in    
Wind  
Wind Speed 5 mph ()    
Max Wind Speed 21 mph    
Max Gust Speed 28 mph    
Visibility 10.0 miles    
Events      
T = Trace of Precipitation, MM = Missing Value Source: Averaged Metar Reports

Daily Weather History Graph

Daily Weather History Graph

Search for Another Location

Airport or City:

Astronomy

Aug. 15, 2019 Rise Set
Actual Time 6:11 AM PDT 7:54 PM PDT
Civil Twilight 5:42 AM PDT 8:23 PM PDT
Nautical Twilight 5:07 AM PDT 8:58 PM PDT
Astronomical Twilight 4:30 AM PDT 9:35 PM PDT
Moon 8:26 PM PDT (8/15) 6:10 AM PDT (8/15)
Length of Visible Light 14h 40m
Length of Day
13h 43m
Full, 100% of the Moon is Illuminated
Aug 15
Full
Aug 23
Last Quarter
Aug 30
New
Sep 5
First Quarter
Sep 13
Full

Hourly Weather History & Observations

Time (PDT) Temp. Dew Point Humidity Pressure Visibility Wind Dir Wind Speed Gust Speed Precip Events Conditions
12:55 AM 75.9 °F 41.0 °F 29% 30.01 in 10.0 mi NNW 5.8 mph - N/A   Clear
1:55 AM 73.9 °F 39.9 °F 29% 30.01 in 10.0 mi West 3.5 mph - N/A   Clear
2:55 AM 70.0 °F 39.9 °F 33% 30.01 in 10.0 mi Calm Calm - N/A   Clear
3:55 AM 68.0 °F 39.0 °F 35% 30.02 in 10.0 mi SW 3.5 mph - N/A   Clear
4:55 AM 64.9 °F 39.0 °F 39% 30.03 in 10.0 mi Calm Calm - N/A   Clear
5:55 AM 63.0 °F 39.9 °F 43% 30.04 in 10.0 mi SSW 3.5 mph - N/A   Clear
6:55 AM 66.9 °F 37.9 °F 34% 30.05 in 10.0 mi West 5.8 mph - N/A   Clear
7:55 AM 68.0 °F 39.9 °F 36% 30.06 in 10.0 mi Calm Calm - N/A   Clear
8:55 AM 73.0 °F 39.0 °F 29% 30.05 in 10.0 mi Calm Calm - N/A   Clear
9:55 AM 81.0 °F 37.9 °F 21% 30.03 in 10.0 mi Calm Calm - N/A   Clear
10:55 AM 84.9 °F 39.0 °F 20% 30.01 in 10.0 mi West 3.5 mph - N/A   Clear
11:55 AM 88.0 °F 39.0 °F 18% 29.98 in 10.0 mi Variable 3.5 mph - N/A   Clear
12:55 PM 91.9 °F 39.0 °F 16% 29.95 in 10.0 mi NE 3.5 mph - N/A   Partly Cloudy
1:55 PM 95.0 °F 35.1 °F 12% 29.92 in 10.0 mi South 6.9 mph - N/A   Partly Cloudy
2:55 PM 97.0 °F 35.1 °F 11% 29.89 in 10.0 mi SE 8.1 mph - N/A   Partly Cloudy
3:55 PM 98.1 °F 33.1 °F 10% 29.86 in 10.0 mi SW 5.8 mph - N/A   Partly Cloudy
4:55 PM 97.0 °F 34.0 °F 11% 29.86 in 10.0 mi Variable 4.6 mph - N/A   Partly Cloudy
5:55 PM 97.0 °F 32.0 °F 10% 29.85 in 10.0 mi West 17.3 mph 23.0 mph N/A   Partly Cloudy
6:55 PM 93.9 °F 36.0 °F 13% 29.86 in 10.0 mi WNW 17.3 mph - N/A   Partly Cloudy
7:55 PM 89.1 °F 37.0 °F 16% 29.88 in 10.0 mi WNW 13.8 mph 23.0 mph N/A   Partly Cloudy
8:55 PM 86.0 °F 37.9 °F 18% 29.91 in 10.0 mi NW 11.5 mph - N/A   Clear
9:55 PM 82.9 °F 39.0 °F 21% 29.91 in 10.0 mi NW 11.5 mph - N/A   Clear
10:55 PM 81.0 °F 39.9 °F 23% 29.90 in 10.0 mi WNW 10.4 mph - N/A   Clear
11:55 PM 79.0 °F 36.0 °F 21% 29.92 in 10.0 mi NNW 8.1 mph - N/A   Clear